カタログに戻る

FLOCK 4H 31

運用中科学SSO
NORAD 66734·PAYLOAD·🇺🇸 United States

打ち上げ Nov 28, 2025 から Vandenberg Space Force Base

Loading…

次のパス (今後24時間)

TLE

最新Source: CelesTrak SupGP

元期: Sep 14, 2026, 12:45 UTC

1 66734C 25276BW  26257.53140046  .00008887  00000+0  40666-3 0  2575
2 66734  97.4093 329.3891 0005118  76.7552 111.3433 15.20577561    18

AllMySatでFLOCK 4H 31をリアルタイム追跡

Download on the App Store